period_start,C,m1,H,J0,J1,J2,J3,J4,J5,JA,JB,JC,JD,JJ,JK,JN,#
2016-02-06 00:03:30,0.22,6.40,0.00,14.56,18.34,22.50,15.19,49.65,1029.36,2065.04,1748.73,1906.52,2118.78,600.21,621.48,42.06,0000 0000 0000 0000 000000
2016-02-06 00:08:31,0.17,6.41,0.00,14.55,18.34,22.41,15.18,49.57,1029.43,2065.04,1746.99,1905.22,2117.50,599.84,621.10,42.11,0000 0000 0000 0000 000000
2016-02-06 00:13:32,0.18,6.42,0.00,14.55,18.34,22.37,15.17,49.68,1029.38,2065.02,1745.35,1904.01,2116.08,599.84,621.13,42.16,0000 0000 0000 0000 000000
2016-02-06 00:18:33,0.18,6.43,0.00,14.56,18.34,22.51,15.21,49.83,1029.36,2065.03,1743.90,1902.83,2114.73,599.99,621.15,42.22,0000 0000 0000 0000 000000
2016-02-06 00:23:35,0.17,6.44,0.00,14.54,18.34,22.38,15.21,49.75,1029.38,2065.09,1742.48,1901.78,2113.47,599.65,621.02,42.27,0000 0000 0000 0000 000000
2016-02-06 00:28:36,0.16,6.44,0.00,14.55,18.35,22.36,15.22,49.61,1029.39,2065.07,1741.05,1900.62,2112.16,599.76,620.99,42.32,0000 0000 0000 0000 000000
2016-02-06 00:33:38,0.17,6.45,0.00,14.54,18.37,22.47,15.21,49.77,1029.34,2065.04,1739.61,1899.46,2110.89,600.13,621.34,42.37,0000 0000 0000 0000 000000
2016-02-06 00:38:39,0.18,6.46,0.00,14.54,18.37,22.50,15.18,49.66,1029.34,2065.01,1737.92,1898.23,2109.62,599.71,620.83,42.42,0000 0000 0000 0000 000000
2016-02-06 00:43:40,0.17,6.47,0.00,14.55,18.37,22.55,15.17,49.63,1029.34,2065.01,1736.48,1896.99,2108.29,599.60,620.83,42.47,0000 0000 0000 0000 000000
2016-02-06 00:48:41,0.20,6.48,0.00,14.55,18.39,22.41,15.22,49.69,1029.38,2065.01,1734.79,1895.81,2106.89,599.87,621.10,42.52,0000 0000 0000 0000 000000
2016-02-06 00:53:43,0.17,6.49,0.00,14.55,18.39,22.45,15.18,49.73,1029.42,2065.00,1733.35,1894.66,2105.61,599.81,621.08,42.57,0000 0000 0000 0000 000000
2016-02-06 00:58:44,0.14,6.50,0.00,14.52,18.39,22.49,15.20,49.71,1029.46,2065.00,1732.07,1893.60,2104.32,600.08,621.38,42.62,0000 0000 0000 0000 000000
2016-02-06 01:03:45,0.18,6.51,0.00,14.52,18.39,22.59,15.19,49.63,1029.50,2065.01,1730.78,1892.54,2102.96,599.88,621.30,42.67,0000 0000 0000 0000 000000
2016-02-06 01:08:47,0.18,6.52,0.00,14.54,18.39,22.58,15.20,49.69,1029.50,2065.00,1729.19,1891.31,2101.62,599.92,621.22,42.72,0000 0000 0000 0000 000000
2016-02-06 01:13:48,0.18,6.53,0.00,14.55,18.39,22.53,15.16,49.72,1029.40,2065.00,1727.64,1890.08,2100.35,600.26,621.55,42.77,0000 0000 0000 0000 000000
2016-02-06 01:18:49,0.19,6.54,0.00,14.54,18.39,22.54,15.22,49.83,1029.36,2065.00,1725.92,1888.85,2098.98,599.73,621.10,42.82,0000 0000 0000 0000 000000
2016-02-06 01:23:50,0.18,6.55,0.00,14.56,18.39,22.48,15.20,49.90,1029.37,2065.00,1724.36,1887.72,2097.70,599.86,621.06,42.87,0000 0000 0000 0000 000000
2016-02-06 01:28:52,0.16,6.55,0.00,14.57,18.39,22.49,15.22,49.78,1029.42,2065.00,1723.12,1886.56,2096.44,600.06,621.29,42.92,0000 0000 0000 0000 000000
2016-02-06 01:33:53,0.18,6.56,0.00,14.54,18.39,22.39,15.17,49.67,1029.53,2065.00,1721.75,1885.52,2095.16,599.54,620.79,42.97,0000 0000 0000 0000 000000
2016-02-06 01:38:54,0.16,6.57,0.00,14.54,18.39,22.52,15.17,49.64,1029.74,2065.00,1720.45,1884.43,2093.84,599.61,621.12,43.02,0000 0000 0000 0000 000000
2016-02-06 01:43:55,0.17,6.58,0.00,14.54,18.39,22.44,15.25,49.55,1029.79,2065.00,1719.05,1883.32,2092.61,600.23,621.72,43.08,0000 0000 0000 0000 000000
2016-02-06 01:48:57,0.17,6.59,0.00,14.55,18.39,22.43,15.25,49.73,1029.80,2064.99,1717.40,1882.16,2091.41,600.21,621.66,43.13,0000 0000 0000 0000 000000
2016-02-06 01:53:59,0.14,6.60,0.00,14.56,18.39,22.38,15.12,49.37,1029.80,2064.99,1716.06,1881.12,2090.18,599.59,621.11,43.18,0000 0000 0000 0000 000000
2016-02-06 01:59:00,0.17,6.61,0.00,14.54,18.39,22.50,15.24,49.48,1029.79,2064.99,1714.76,1880.13,2088.94,599.84,621.21,43.23,0000 0000 0000 0000 000000
2016-02-06 02:04:01,0.17,6.61,0.00,14.56,18.39,22.51,15.30,49.48,1029.79,2064.99,1713.27,1879.01,2087.74,600.18,621.68,43.28,0000 0000 0000 0000 000000
2016-02-06 02:09:02,0.16,6.62,0.00,14.59,18.39,22.43,15.12,49.27,1029.79,2064.99,1711.86,1877.96,2086.57,600.18,621.67,43.33,0000 0000 0000 0000 000000
2016-02-06 02:14:03,0.18,6.63,0.00,14.62,18.39,22.48,15.17,49.25,1029.79,2064.99,1710.50,1876.88,2085.28,599.96,621.35,43.38,0000 0000 0000 0000 000000
2016-02-06 02:19:05,0.15,6.64,0.00,14.61,18.39,22.45,15.22,49.35,1029.79,2064.99,1709.02,1875.82,2084.12,599.97,621.10,43.43,0000 0000 0000 0000 000000
2016-02-06 02:24:06,0.18,6.65,0.00,14.61,18.40,22.43,15.17,49.38,1029.79,2064.99,1707.84,1874.74,2082.80,599.80,621.02,43.48,0000 0000 0000 0000 000000
2016-02-06 02:29:07,0.18,6.66,0.00,14.60,18.41,22.49,15.21,49.22,1029.72,2064.99,1706.45,1873.61,2081.51,599.85,621.16,43.53,0000 0000 0000 0000 000000
2016-02-06 02:34:08,0.19,6.67,0.00,14.60,18.40,22.42,15.12,49.42,1029.67,2064.98,1704.67,1872.43,2080.23,599.85,621.15,43.58,0000 0000 0000 0000 000000
2016-02-06 02:39:10,0.16,6.68,0.00,14.63,18.41,22.45,15.29,49.25,1029.50,2064.99,1703.28,1871.35,2078.90,600.39,621.47,43.63,0000 0000 0000 0000 000000
2016-02-06 02:44:11,0.18,6.68,0.00,14.63,18.42,22.48,15.25,49.22,1029.41,2064.98,1701.78,1870.23,2077.70,599.92,621.00,43.68,0000 0000 0000 0000 000000
2016-02-06 02:49:12,0.17,6.69,0.00,14.64,18.41,22.41,15.24,49.40,1029.40,2064.99,1700.18,1869.05,2076.53,600.33,621.43,43.73,0000 0000 0000 0000 000000
2016-02-06 02:54:14,0.16,6.70,0.00,14.65,18.40,22.47,15.23,49.42,1029.41,2064.99,1698.86,1867.99,2075.20,600.17,621.22,43.78,0000 0000 0000 0000 000000
2016-02-06 02:59:15,0.21,6.71,0.00,14.66,18.40,22.44,15.16,49.35,1029.46,2064.98,1697.35,1866.77,2073.80,600.16,621.24,43.83,0000 0000 0000 0000 000000
2016-02-06 03:04:16,0.18,6.72,0.00,14.67,18.41,22.42,15.26,49.21,1029.39,2064.98,1695.79,1865.67,2072.58,599.94,620.91,43.88,0000 0000 0000 0000 000000
2016-02-06 03:09:18,0.18,6.73,0.00,14.69,18.41,22.48,15.19,49.58,1029.37,2064.98,1694.11,1864.56,2071.41,600.18,621.12,43.93,0000 0000 0000 0000 000000
2016-02-06 03:14:19,0.19,6.74,0.00,14.71,18.42,22.42,15.20,49.72,1029.35,2064.98,1692.37,1863.40,2070.01,599.86,620.61,43.98,0000 0000 0000 0000 000000
2016-02-06 03:19:20,0.19,6.75,0.00,14.71,18.42,22.48,15.20,49.87,1029.33,2064.97,1690.69,1862.20,2068.74,600.02,620.88,44.04,0000 0000 0000 0000 000000
2016-02-06 03:24:22,0.15,6.76,0.00,14.73,18.42,22.51,15.11,49.58,1029.34,2064.97,1689.61,1861.13,2067.52,599.70,620.53,44.09,0000 0000 0000 0000 000000
2016-02-06 03:29:23,0.18,6.77,0.00,14.74,18.44,22.49,15.17,49.61,1029.35,2064.97,1687.97,1859.97,2066.20,600.11,620.95,44.14,0000 0000 0000 0000 000000
2016-02-06 03:34:24,0.17,6.78,0.00,14.75,18.44,22.54,15.16,49.57,1029.32,2064.96,1686.45,1858.89,2064.93,599.83,620.65,44.19,0000 0000 0000 0000 000000
2016-02-06 03:39:26,0.18,6.79,0.00,14.76,18.46,22.47,15.21,49.59,1029.33,2064.93,1685.18,1857.74,2063.62,600.06,620.69,44.24,0000 0000 0000 0000 000000
2016-02-06 03:44:26,0.17,6.80,0.00,14.78,18.47,22.56,15.18,49.45,1029.34,2064.84,1683.60,1856.59,2062.37,600.32,621.05,44.29,0000 0000 0000 0000 000000
2016-02-06 03:49:28,0.16,6.80,0.00,14.79,18.48,22.55,15.24,49.44,1029.47,2064.67,1682.13,1855.43,2061.03,600.20,620.97,44.34,0000 0000 0000 0000 000000
2016-02-06 03:54:29,0.18,6.81,0.00,14.81,18.49,22.57,15.14,49.52,1029.50,2064.72,1680.65,1854.50,2059.71,599.86,620.77,44.39,0000 0000 0000 0000 000000
2016-02-06 03:59:30,0.14,6.82,0.00,14.83,18.49,22.52,15.16,49.23,1029.41,2064.60,1679.26,1853.39,2058.53,599.95,620.59,44.44,0000 0000 0000 0000 000000
2016-02-06 04:04:32,0.15,6.83,0.00,14.85,18.50,22.48,15.24,49.37,1029.48,2064.26,1677.76,1852.24,2057.17,600.04,620.69,44.49,0000 0000 0000 0000 000000
2016-02-06 04:09:33,0.20,6.84,0.00,14.86,18.51,22.53,15.24,49.76,1029.59,2064.16,1676.06,1851.01,2055.85,600.21,620.95,44.54,0000 0000 0000 0000 000000
2016-02-06 04:14:34,0.19,6.85,0.00,14.88,18.52,22.45,15.11,49.76,1029.49,2064.14,1674.43,1849.83,2054.60,599.80,620.34,44.59,0000 0000 0000 0000 000000
2016-02-06 04:19:35,0.15,6.86,0.00,14.92,18.53,22.47,15.20,49.62,1029.47,2064.10,1673.32,1848.74,2053.34,600.19,620.57,44.64,0000 0000 0000 0000 000000
2016-02-06 04:24:36,0.19,6.87,0.00,14.93,18.56,22.54,15.19,49.58,1029.39,2064.03,1671.71,1847.58,2051.94,600.12,620.59,44.69,0000 0000 0000 0000 000000
2016-02-06 04:29:37,0.18,6.88,0.00,14.94,18.59,22.55,15.25,49.65,1029.37,2064.00,1670.18,1846.32,2050.59,600.14,620.48,44.74,0000 0000 0000 0000 000000
2016-02-06 04:34:39,0.17,6.89,0.00,14.97,18.63,22.62,15.18,49.27,1029.33,2063.99,1668.98,1845.12,2049.09,600.01,620.39,44.79,0000 0000 0000 0000 000000
2016-02-06 04:39:40,0.20,6.89,0.00,14.99,18.67,22.71,15.27,49.29,1029.32,2063.94,1667.61,1843.85,2047.60,600.16,620.37,44.84,0000 0000 0000 0000 000000
2016-02-06 04:44:42,0.14,6.90,0.00,15.00,18.70,22.71,15.22,49.29,1029.32,2063.77,1665.98,1842.71,2046.60,599.79,620.02,44.89,0000 0000 0000 0000 000000
2016-02-06 04:49:43,0.13,6.91,0.00,15.00,18.73,22.76,15.19,49.29,1029.33,2063.26,1664.51,1841.50,2045.31,599.94,620.25,44.95,0000 0000 0000 0000 000000
2016-02-06 04:54:44,0.17,6.92,0.00,15.00,18.76,22.76,15.22,49.33,1029.32,2063.05,1662.91,1840.31,2043.92,600.13,620.34,45.00,0000 0000 0000 0000 000000
2016-02-06 04:59:45,0.17,6.93,0.00,15.01,18.78,22.82,15.21,49.33,1029.34,2063.04,1661.46,1839.13,2042.64,599.71,619.88,45.05,0000 0000 0000 0000 000000
2016-02-06 05:04:46,0.17,6.94,0.00,15.02,18.79,22.85,15.26,49.45,1029.34,2063.02,1659.96,1837.98,2041.41,600.20,620.50,45.10,0000 0000 0000 0000 000000
2016-02-06 05:09:47,0.18,6.95,0.00,15.01,18.81,22.86,15.18,49.02,1029.34,2063.01,1658.60,1836.89,2040.08,599.91,620.20,45.15,0000 0000 0000 0000 000000
2016-02-06 05:14:49,0.19,6.95,0.00,15.01,18.82,22.84,15.13,49.18,1029.34,2063.01,1657.31,1835.75,2038.72,599.90,620.06,45.20,0000 0000 0000 0000 000000
2016-02-06 05:19:50,0.21,6.96,0.00,15.03,18.84,22.92,15.12,49.42,1029.34,2063.00,1655.66,1834.52,2037.42,600.07,620.30,45.25,0000 0000 0000 0000 000000
2016-02-06 05:24:52,0.17,6.97,0.00,15.00,18.84,22.89,15.21,49.22,1029.39,2063.00,1654.14,1833.42,2036.17,600.04,620.32,45.30,0000 0000 0000 0000 000000
2016-02-06 05:29:53,0.18,6.98,0.00,15.00,18.85,22.93,15.13,49.17,1029.35,2063.00,1652.78,1832.30,2034.84,599.80,620.12,45.35,0000 0000 0000 0000 000000
2016-02-06 05:34:54,0.17,6.99,0.00,15.01,18.87,22.93,15.19,49.24,1029.38,2063.00,1651.34,1831.17,2033.59,600.06,620.29,45.40,0000 0000 0000 0000 000000
2016-02-06 05:39:55,0.19,7.00,0.00,15.05,18.87,22.90,15.21,49.17,1029.38,2063.00,1649.65,1830.01,2032.41,600.17,620.32,45.45,0000 0000 0000 0000 000000
2016-02-06 05:44:56,0.16,7.01,0.00,15.04,18.87,22.89,15.17,49.36,1029.38,2063.00,1648.28,1828.93,2031.19,599.92,620.18,45.50,0000 0000 0000 0000 000000
2016-02-06 05:49:58,0.18,7.02,0.00,15.01,18.87,22.90,15.26,49.32,1029.42,2063.00,1647.07,1827.83,2029.82,599.95,620.19,45.55,0000 0000 0000 0000 000000
2016-02-06 05:54:59,0.21,7.03,0.00,14.99,18.86,22.83,15.24,49.31,1029.36,2062.99,1645.53,1826.72,2028.56,600.66,620.91,45.60,0000 0000 0000 0000 000000
2016-02-06 06:00:01,0.18,7.04,0.00,15.00,18.85,22.90,15.19,49.73,1029.54,2062.99,1643.96,1825.63,2027.39,600.15,620.40,45.65,0000 0000 0000 0000 000000
2016-02-06 06:05:02,0.17,7.05,0.00,15.01,18.84,22.92,15.14,49.59,1029.69,2062.99,1642.61,1824.53,2026.14,600.01,620.46,45.70,0000 0000 0000 0000 000000
2016-02-06 06:10:03,0.20,7.06,0.00,15.01,18.83,22.78,15.15,49.65,1029.76,2062.99,1640.89,1823.36,2024.83,600.22,620.65,45.75,0000 0000 0000 0000 000000
2016-02-06 06:15:04,0.18,7.07,0.00,15.01,18.82,22.78,15.24,49.73,1029.77,2062.99,1639.39,1822.15,2023.51,599.97,620.26,45.80,0000 0000 0000 0000 000000
2016-02-06 06:20:06,0.20,7.08,0.00,14.99,18.82,22.87,15.23,49.63,1029.77,2062.99,1637.73,1820.91,2022.22,599.89,620.43,45.85,0000 0000 0000 0000 000000
2016-02-06 06:25:08,0.19,7.09,0.00,15.00,18.82,22.83,15.19,49.58,1029.75,2062.99,1636.21,1819.76,2020.82,599.77,620.34,45.90,0000 0000 0000 0000 000000
2016-02-06 06:30:09,0.36,7.10,0.00,15.02,18.82,22.84,15.20,49.79,1029.77,2063.00,1633.62,1818.05,2018.97,600.21,620.68,45.96,0000 0000 0000 0000 000000
2016-02-06 06:35:10,0.36,7.12,0.00,15.02,18.82,22.80,15.10,49.52,1029.77,2063.00,1630.56,1815.86,2016.49,600.30,620.81,46.01,0000 0000 0000 0000 000000
2016-02-06 06:40:11,0.34,7.14,0.00,15.00,18.82,22.81,15.20,49.76,1029.76,2063.00,1627.53,1813.89,2014.30,600.00,620.50,46.06,0000 0000 0000 0000 000000
2016-02-06 06:45:13,0.29,7.16,0.00,14.98,18.82,22.85,15.24,49.63,1029.70,2063.00,1625.08,1812.25,2012.39,599.66,620.23,46.11,0000 0000 0000 0000 000000
2016-02-06 06:50:14,0.41,7.17,0.00,14.98,18.82,22.89,15.19,49.44,1029.74,2063.00,1622.26,1810.14,2010.03,600.08,620.91,46.16,0000 0000 0000 0000 000000
2016-02-06 06:55:16,0.47,7.20,0.00,14.97,18.82,22.91,15.18,49.53,1029.76,2063.00,1618.32,1807.29,2006.99,599.55,620.15,46.21,0000 0000 0000 0000 000000
2016-02-06 07:00:17,0.38,7.22,0.00,14.97,18.82,22.86,15.17,49.67,1029.79,2063.00,1615.37,1805.00,2004.32,599.89,620.67,46.26,0000 0000 0000 0000 000000
2016-02-06 07:05:18,0.36,7.24,0.00,14.98,18.82,22.85,15.25,49.48,1029.80,2063.00,1612.48,1802.79,2001.93,600.28,620.78,46.31,0000 0000 0000 0000 000000
2016-02-06 07:10:19,0.35,7.25,0.00,14.97,18.82,22.83,15.22,49.37,1029.79,2063.00,1609.81,1800.79,1999.68,600.17,620.66,46.36,0000 0000 0000 0000 000000
2016-02-06 07:15:21,0.37,7.27,0.00,14.97,18.82,22.83,15.21,49.49,1029.78,2063.00,1606.84,1798.62,1997.35,599.75,620.34,46.41,0000 0000 0000 0000 000000
2016-02-06 07:20:22,0.36,7.29,0.00,14.97,18.82,22.79,15.19,49.84,1029.79,2063.00,1603.98,1796.50,1995.01,599.92,620.51,46.46,0000 0000 0000 0000 000000
2016-02-06 07:25:24,0.25,7.31,0.00,14.97,18.82,22.81,15.14,49.48,1029.79,2063.00,1602.07,1794.74,1993.02,599.51,620.01,46.51,0000 0000 0000 0000 000000
2016-02-06 07:30:25,0.24,7.32,0.00,14.97,18.82,22.84,15.20,49.50,1029.79,2063.00,1600.22,1793.39,1991.44,600.04,620.69,46.56,0000 0000 0000 0000 000000
2016-02-06 07:35:26,0.27,7.33,0.00,14.97,18.82,22.86,15.24,49.38,1029.79,2063.00,1598.20,1791.85,1989.70,600.08,620.67,46.61,0000 0000 0000 0000 000000
2016-02-06 07:40:28,0.20,7.34,0.00,14.95,18.81,22.81,15.08,49.22,1029.80,2063.00,1596.70,1790.57,1988.22,599.63,620.28,46.66,0000 0000 0000 0000 000000
2016-02-06 07:45:29,0.19,7.36,0.00,14.94,18.80,22.91,15.25,49.33,1029.80,2063.00,1595.32,1789.47,1986.83,600.53,621.25,46.71,0000 0000 0000 0000 000000
2016-02-06 07:50:30,0.21,7.37,0.00,14.95,18.79,22.86,15.23,49.81,1029.80,2063.00,1593.58,1788.22,1985.49,600.14,620.58,46.76,0000 0000 0000 0000 000000
2016-02-06 07:55:32,0.22,7.38,0.00,14.96,18.79,22.82,15.14,49.26,1029.80,2063.00,1591.89,1786.88,1984.10,599.83,620.49,46.81,0000 0000 0000 0000 000000
2016-02-06 08:00:33,0.23,7.39,0.00,14.96,18.79,22.73,15.21,49.49,1029.81,2063.00,1590.11,1785.59,1982.73,600.21,620.87,46.86,0000 0000 0000 0000 000000
2016-02-06 08:05:34,0.23,7.40,0.00,14.94,18.77,22.77,15.22,49.44,1029.80,2063.00,1588.29,1784.20,1981.15,600.16,620.82,46.91,0000 0000 0000 0000 000000
2016-02-06 08:10:35,0.28,7.41,0.00,14.93,18.77,22.79,15.18,49.58,1029.80,2063.00,1586.30,1782.70,1979.54,600.30,620.98,46.96,0000 0000 0000 0000 000000
2016-02-06 08:15:37,0.22,7.43,0.00,14.92,18.76,22.81,15.17,49.31,1029.80,2063.01,1584.67,1781.34,1977.87,599.74,620.48,47.02,0000 0000 0000 0000 000000
2016-02-06 08:20:38,0.20,7.44,0.00,14.92,18.75,22.83,15.25,49.53,1029.82,2063.00,1583.19,1780.04,1976.48,600.47,621.18,47.07,0000 0000 0000 0000 000000
2016-02-06 08:25:39,0.25,7.45,0.00,14.92,18.74,22.75,15.17,49.56,1029.82,2063.00,1581.30,1778.71,1975.03,600.17,621.00,47.12,0000 0000 0000 0000 000000
2016-02-06 08:30:40,0.26,7.46,0.00,14.92,18.72,22.75,15.19,49.50,1029.82,2063.01,1579.33,1777.29,1973.42,599.89,620.56,47.17,0000 0000 0000 0000 000000
2016-02-06 08:35:42,0.29,7.48,0.00,14.88,18.72,22.77,15.20,49.41,1029.81,2063.00,1577.23,1775.69,1971.62,600.08,620.86,47.22,0000 0000 0000 0000 000000
2016-02-06 08:40:43,0.27,7.49,0.00,14.76,18.70,22.80,15.14,49.34,1029.81,2063.01,1574.98,1774.06,1969.86,599.66,620.63,47.27,0000 0000 0000 0000 000000
2016-02-06 08:45:44,0.28,7.51,0.00,14.74,18.69,22.78,15.20,49.60,1029.80,2063.03,1572.78,1772.53,1968.14,600.17,621.31,47.32,0000 0000 0000 0000 000000
2016-02-06 08:50:46,0.21,7.52,0.00,14.76,18.68,22.83,15.29,49.44,1029.80,2063.04,1571.30,1771.15,1966.51,600.04,621.17,47.37,0000 0000 0000 0000 000000
2016-02-06 08:55:47,0.29,7.53,0.00,14.75,18.67,22.73,15.31,49.49,1029.80,2063.09,1569.17,1769.68,1964.86,600.26,621.34,47.42,0000 0000 0000 0000 000000
2016-02-06 09:00:48,0.26,7.55,0.00,14.74,18.65,22.74,15.25,49.63,1029.80,2063.13,1566.95,1768.22,1963.30,600.11,621.00,47.47,0000 0000 0000 0000 000000
2016-02-06 09:05:49,0.24,7.56,0.00,14.74,18.64,22.64,15.21,49.06,1029.80,2063.14,1565.44,1766.76,1961.63,600.16,621.14,47.52,0000 0000 0000 0000 000000
2016-02-06 09:10:51,0.30,7.57,0.00,14.74,18.63,22.61,15.16,49.26,1029.80,2063.43,1563.37,1765.43,1960.14,600.23,621.37,47.57,0000 0000 0000 0000 000000
2016-02-06 09:15:52,0.28,7.59,0.00,14.73,18.62,22.68,15.29,49.42,1029.80,2063.63,1561.23,1763.91,1958.54,599.85,621.01,47.62,0000 0000 0000 0000 000000
2016-02-06 09:20:53,0.27,7.60,0.00,14.70,18.60,22.71,15.20,49.25,1029.80,2063.86,1559.64,1762.62,1956.98,600.15,621.32,47.67,0000 0000 0000 0000 000000
2016-02-06 09:25:54,0.21,7.61,0.00,14.72,18.59,22.65,15.27,49.57,1029.80,2063.89,1557.92,1761.23,1955.46,600.08,621.18,47.72,0000 0000 0000 0000 000000
2016-02-06 09:30:55,0.21,7.63,0.00,14.72,18.57,22.62,15.16,49.12,1029.80,2063.95,1556.32,1760.10,1954.09,599.95,621.06,47.77,0000 0000 0000 0000 000000
2016-02-06 09:35:56,0.27,7.64,0.00,14.69,18.57,22.58,15.30,49.80,1029.80,2063.94,1554.48,1758.77,1952.77,599.79,621.22,47.82,0000 0000 0000 0000 000000
2016-02-06 09:40:57,0.22,7.65,0.00,14.69,18.54,22.60,15.17,49.57,1029.80,2063.98,1552.73,1757.57,1951.53,600.04,621.20,47.87,0000 0000 0000 0000 000000
2016-02-06 09:45:59,0.20,7.66,0.00,14.69,18.54,22.61,15.12,49.30,1029.79,2063.99,1551.12,1756.35,1949.99,599.60,620.82,47.92,0000 0000 0000 0000 000000
2016-02-06 09:51:00,0.23,7.67,0.00,14.67,18.52,22.60,15.16,49.70,1029.80,2063.98,1549.37,1755.04,1948.59,600.12,621.29,47.98,0000 0000 0000 0000 000000
2016-02-06 09:56:01,0.22,7.68,0.00,14.67,18.52,22.57,15.11,49.30,1029.80,2063.99,1547.85,1753.76,1947.14,599.33,620.56,48.03,0000 0000 0000 0000 000000
2016-02-06 10:01:03,0.23,7.69,0.00,14.65,18.50,22.53,15.17,49.36,1029.80,2063.99,1546.24,1752.54,1945.72,600.02,621.22,48.08,0000 0000 0000 0000 000000
2016-02-06 10:06:04,0.22,7.70,0.00,14.64,18.49,22.60,15.18,49.40,1029.80,2063.99,1544.48,1751.41,1944.46,599.37,620.66,48.13,0000 0000 0000 0000 000000
2016-02-06 10:11:05,0.24,7.72,0.00,14.63,18.48,22.50,15.14,49.26,1029.80,2063.99,1542.66,1750.01,1942.96,599.78,620.99,48.18,0000 0000 0000 0000 000000
2016-02-06 10:16:07,0.25,7.73,0.00,14.63,18.47,22.58,15.19,49.73,1029.80,2064.00,1540.82,1748.74,1941.55,599.87,621.24,48.23,0000 0000 0000 0000 000000
2016-02-06 10:21:08,0.20,7.74,0.00,14.60,18.45,22.59,15.16,49.63,1029.80,2064.01,1539.30,1747.58,1940.22,599.62,621.01,48.28,0000 0000 0000 0000 000000
2016-02-06 10:26:09,0.22,7.75,0.00,14.61,18.44,22.54,15.19,49.48,1029.79,2064.02,1537.67,1746.40,1938.89,599.94,621.31,48.33,0000 0000 0000 0000 000000
2016-02-06 10:31:10,0.20,7.76,0.00,14.59,18.44,22.50,15.22,49.52,1029.79,2064.04,1536.13,1745.20,1937.52,599.43,620.78,48.38,0000 0000 0000 0000 000000
2016-02-06 10:36:12,0.21,7.77,0.00,14.59,18.44,22.57,15.21,49.58,1029.79,2064.05,1534.73,1743.89,1936.02,599.80,621.16,48.43,0000 0000 0000 0000 000000
2016-02-06 10:41:13,0.27,7.79,0.00,14.60,18.43,22.56,15.20,49.52,1029.75,2064.06,1532.99,1742.56,1934.50,599.90,621.20,48.48,0000 0000 0000 0000 000000
2016-02-06 10:46:14,0.26,7.80,0.00,14.59,18.43,22.56,15.14,49.49,1029.66,2064.05,1531.07,1741.10,1932.81,599.95,621.25,48.53,0000 0000 0000 0000 000000
2016-02-06 10:51:16,0.26,7.81,0.00,14.57,18.42,22.60,15.25,49.38,1029.71,2064.03,1529.03,1739.66,1931.32,600.21,621.62,48.58,0000 0000 0000 0000 000000
2016-02-06 10:56:17,0.26,7.83,0.00,14.56,18.42,22.52,15.21,49.88,1029.66,2064.04,1527.09,1738.28,1929.73,599.85,621.21,48.63,0000 0000 0000 0000 000000
2016-02-06 11:01:18,0.27,7.84,0.00,14.54,18.42,22.55,15.21,49.63,1029.53,2064.05,1525.06,1736.81,1928.19,600.15,621.46,48.68,0000 0000 0000 0000 000000
2016-02-06 11:06:19,0.25,7.85,0.00,14.53,18.42,22.55,15.19,49.72,1029.36,2064.03,1523.20,1735.50,1926.62,599.80,621.09,48.73,0000 0000 0000 0000 000000
2016-02-06 11:11:21,0.28,7.87,0.00,14.52,18.41,22.52,15.18,50.08,1029.44,2064.09,1521.24,1733.96,1925.01,600.14,621.52,48.78,0000 0000 0000 0000 000000
2016-02-06 11:16:22,0.27,7.88,0.00,14.53,18.41,22.55,15.27,49.97,1029.44,2064.10,1519.33,1732.56,1923.40,600.18,621.52,48.83,0000 0000 0000 0000 000000
2016-02-06 11:21:24,0.26,7.90,0.00,14.52,18.41,22.57,15.09,49.93,1029.34,2064.15,1517.40,1731.08,1921.74,599.61,620.96,48.88,0000 0000 0000 0000 000000
2016-02-06 11:26:25,0.26,7.91,0.00,14.52,18.42,22.56,15.21,49.50,1029.32,2064.10,1515.55,1729.63,1920.04,600.06,621.57,48.93,0000 0000 0000 0000 000000
2016-02-06 11:31:27,0.24,7.92,0.00,14.53,18.42,22.57,15.15,49.57,1029.34,2064.08,1513.81,1728.28,1918.55,599.91,621.26,48.99,0000 0000 0000 0000 000000
2016-02-06 11:36:28,0.19,7.93,0.00,14.52,18.42,22.47,15.14,49.38,1029.32,2064.06,1512.31,1727.14,1917.16,599.79,621.13,49.04,0000 0000 0000 0000 000000
2016-02-06 11:41:29,0.24,7.94,0.00,14.52,18.40,22.50,15.20,49.47,1029.33,2064.07,1510.59,1725.98,1915.74,600.37,621.63,49.09,0000 0000 0000 0000 000000
2016-02-06 11:46:30,0.26,7.96,0.00,14.51,18.39,22.53,15.19,49.58,1029.32,2064.05,1508.72,1724.64,1914.28,599.83,621.12,49.14,0000 0000 0000 0000 000000
2016-02-06 11:51:32,0.28,7.97,0.00,14.49,18.39,22.46,15.25,49.42,1029.32,2064.07,1506.63,1723.19,1912.66,599.86,621.19,49.19,0000 0000 0000 0000 000000
2016-02-06 11:56:33,0.28,7.99,0.00,14.51,18.39,22.51,15.24,49.48,1029.31,2064.05,1504.68,1721.68,1911.01,599.53,620.77,49.24,0000 0000 0000 0000 000000
2016-02-06 12:01:34,0.28,8.00,0.00,14.51,18.38,22.47,15.19,49.67,1029.31,2064.08,1502.64,1720.23,1909.36,599.75,621.07,49.29,0000 0000 0000 0000 000000
2016-02-06 12:06:35,0.31,8.02,0.00,14.49,18.37,22.45,15.20,49.37,1029.31,2064.10,1500.50,1718.64,1907.62,600.34,621.72,49.34,0000 0000 0000 0000 000000
2016-02-06 12:11:36,0.26,8.03,0.00,14.50,18.37,22.45,15.26,49.58,1029.32,2064.04,1498.48,1717.14,1905.93,600.47,621.70,49.39,0000 0000 0000 0000 000000
2016-02-06 12:16:38,0.29,8.04,0.00,14.48,18.37,22.42,15.26,49.66,1029.31,2064.06,1496.48,1715.67,1904.35,600.27,621.64,49.44,0000 0000 0000 0000 000000
2016-02-06 12:21:39,0.27,8.06,0.00,14.47,18.37,22.45,15.27,49.58,1029.31,2064.10,1494.51,1714.25,1902.67,599.88,621.22,49.49,0000 0000 0000 0000 000000
2016-02-06 12:26:40,0.34,8.07,0.00,14.46,18.36,22.49,15.18,49.62,1029.31,2064.05,1492.21,1712.54,1900.76,599.72,621.16,49.54,0000 0000 0000 0000 000000
2016-02-06 12:31:42,0.33,8.09,0.00,14.44,18.35,22.37,15.19,49.47,1029.31,2064.04,1489.85,1710.80,1898.85,599.56,620.97,49.59,0000 0000 0000 0000 000000
2016-02-06 12:36:43,0.31,8.11,0.00,14.46,18.34,22.39,15.25,49.40,1029.31,2064.03,1487.68,1709.07,1896.84,599.80,621.24,49.64,0000 0000 0000 0000 000000
2016-02-06 12:41:44,0.41,8.13,0.00,14.44,18.34,22.37,15.21,49.42,1029.31,2064.05,1485.08,1707.12,1894.64,599.80,621.27,49.69,0000 0000 0000 0000 000000
2016-02-06 12:46:46,0.52,8.15,0.00,14.44,18.34,22.36,15.25,49.28,1029.31,2064.05,1481.43,1704.47,1891.76,600.25,621.66,49.74,0000 0000 0000 0000 000000
2016-02-06 12:51:47,0.39,8.17,0.00,14.44,18.32,22.44,15.19,49.08,1029.31,2064.05,1478.25,1702.33,1889.42,599.96,621.39,49.79,0000 0000 0000 0000 000000
2016-02-06 12:56:48,0.35,8.19,0.00,14.42,18.32,22.43,15.17,49.56,1029.31,2064.12,1475.78,1700.60,1887.56,600.04,621.44,49.84,0000 0000 0000 0000 000000